ALSAT-1B

Last updated on Mon Jun 22 2026 00:02:52 GMT+0000 (Coordinated Universal Time)

1 41785U 16059C 26172.52187030 .00000186 00000+0 36888-4 0 9991 2 41785 97.7752 181.0987 0008425 204.3396 155.7415 14.72277021521216
UTC large
Height (km)
Speed (km/s)
/
Latitude / Longitude
Inclination (degrees)
Orbital Period (minutes)
Azimuth
Elevation
Range (km)
Doppler Factor

Next 0 passes for location: London (51.5072 / 0.1276)

No passes found over London.
ALSAT-1B